Time,TemperatureF,DewpointF,PressureIn,WindDirection,WindDirectionDegrees,WindSpeedMPH,WindSpeedGustMPH,Humidity,HourlyPrecipIn,Conditions,Clouds,dailyrainin,SoftwareType,DateUTC
2013-01-15 00:03:00,73.0,66.0,30.15,SE,137,9.0,16.0,77,-99.99,,,-99.99,,2013-01-15 05:03:00,
2013-01-15 00:12:00,73.0,65.0,30.14,SE,130,9.0,14.0,75,-99.99,,,-99.99,,2013-01-15 05:12:00,
2013-01-15 00:22:00,73.0,65.0,30.14,SE,130,9.0,14.0,75,-99.99,,,-99.99,,2013-01-15 05:22:00,
2013-01-15 00:33:00,73.0,65.0,30.14,SE,130,9.0,14.0,75,-99.99,,,-99.99,,2013-01-15 05:33:00,
2013-01-15 00:42:00,73.0,65.0,30.14,SE,127,8.0,16.0,74,-99.99,,,-99.99,,2013-01-15 05:42:00,
2013-01-15 00:53:00,73.0,64.0,30.14,SE,126,7.0,15.0,74,-99.99,,,-99.99,,2013-01-15 05:53:00,
2013-01-15 01:03:00,73.0,64.0,30.14,SE,126,7.0,15.0,74,-99.99,,,-99.99,,2013-01-15 06:03:00,
2013-01-15 01:12:00,73.0,64.0,30.14,SE,126,7.0,15.0,74,-99.99,,,-99.99,,2013-01-15 06:12:00,
2013-01-15 01:22:00,73.0,64.0,30.14,SE,126,7.0,15.0,74,-99.99,,,-99.99,,2013-01-15 06:22:00,
2013-01-15 01:33:00,73.0,64.0,30.13,SE,132,9.0,14.0,73,-99.99,,,-99.99,,2013-01-15 06:33:00,
2013-01-15 01:43:00,73.0,64.0,30.13,SE,127,8.0,14.0,73,-99.99,,,-99.99,,2013-01-15 06:43:00,
2013-01-15 01:53:00,73.0,64.0,30.13,SE,131,7.0,15.0,74,-99.99,,,-99.99,,2013-01-15 06:53:00,
2013-01-15 02:02:00,73.0,64.0,30.13,SE,131,7.0,15.0,74,-99.99,,,-99.99,,2013-01-15 07:02:00,
2013-01-15 02:12:00,73.0,65.0,30.13,SE,130,7.0,13.0,75,-99.99,,,-99.99,,2013-01-15 07:12:00,
2013-01-15 02:22:00,73.0,65.0,30.13,SE,130,7.0,13.0,75,-99.99,,,-99.99,,2013-01-15 07:22:00,
2013-01-15 02:33:00,73.0,65.0,30.13,SE,131,8.0,12.0,76,-99.99,,,-99.99,,2013-01-15 07:33:00,
2013-01-15 02:42:00,73.0,65.0,30.12,SE,128,8.0,12.0,75,-99.99,,,-99.99,,2013-01-15 07:42:00,
2013-01-15 02:53:00,72.0,64.0,30.12,ESE,123,7.0,12.0,75,-99.99,,,-99.99,,2013-01-15 07:53:00,
2013-01-15 03:02:00,72.0,64.0,30.12,ESE,123,7.0,12.0,75,-99.99,,,-99.99,,2013-01-15 08:02:00,
2013-01-15 03:12:00,73.0,64.0,30.12,SE,127,6.0,10.0,74,-99.99,,,-99.99,,2013-01-15 08:12:00,
2013-01-15 03:22:00,73.0,64.0,30.12,SE,127,6.0,10.0,74,-99.99,,,-99.99,,2013-01-15 08:22:00,
2013-01-15 03:33:00,73.0,64.0,30.12,SE,127,6.0,10.0,74,-99.99,,,-99.99,,2013-01-15 08:33:00,
2013-01-15 03:43:00,73.0,65.0,30.11,ESE,121,7.0,13.0,76,-99.99,,,-99.99,,2013-01-15 08:43:00,
2013-01-15 03:53:00,73.0,65.0,30.11,SE,124,7.0,12.0,76,-99.99,,,-99.99,,2013-01-15 08:53:00,
2013-01-15 04:02:00,73.0,65.0,30.11,SE,124,7.0,12.0,76,-99.99,,,-99.99,,2013-01-15 09:02:00,
2013-01-15 04:12:00,73.0,64.0,30.11,SE,124,6.0,10.0,75,-99.99,,,-99.99,,2013-01-15 09:12:00,
2013-01-15 04:22:00,73.0,64.0,30.11,SE,124,6.0,10.0,75,-99.99,,,-99.99,,2013-01-15 09:22:00,
2013-01-15 04:33:00,73.0,65.0,30.10,SE,126,6.0,11.0,76,-99.99,,,-99.99,,2013-01-15 09:33:00,
2013-01-15 04:42:00,72.0,65.0,30.10,ESE,114,5.0,8.0,76,-99.99,,,-99.99,,2013-01-15 09:42:00,
2013-01-15 04:52:00,73.0,65.0,30.10,East,101,4.0,9.0,75,-99.99,,,-99.99,,2013-01-15 09:52:00,
2013-01-15 05:02:00,73.0,65.0,30.10,East,101,4.0,9.0,75,-99.99,,,-99.99,,2013-01-15 10:02:00,
2013-01-15 05:12:00,73.0,65.0,30.10,ESE,105,5.0,9.0,75,-99.99,,,-99.99,,2013-01-15 10:12:00,
2013-01-15 05:22:00,73.0,65.0,30.10,ESE,105,5.0,9.0,75,-99.99,,,-99.99,,2013-01-15 10:22:00,
2013-01-15 05:32:00,73.0,65.0,30.10,ESE,107,5.0,9.0,75,-99.99,,,-99.99,,2013-01-15 10:32:00,
2013-01-15 05:42:00,73.0,65.0,30.10,ESE,106,5.0,10.0,75,-99.99,,,-99.99,,2013-01-15 10:42:00,
2013-01-15 05:52:00,73.0,65.0,30.10,East,92,5.0,9.0,75,-99.99,,,-99.99,,2013-01-15 10:52:00,
2013-01-15 06:03:00,73.0,65.0,30.10,East,92,5.0,9.0,75,-99.99,,,-99.99,,2013-01-15 11:03:00,
2013-01-15 06:12:00,73.0,65.0,30.10,East,94,5.0,10.0,75,-99.99,,,-99.99,,2013-01-15 11:12:00,
2013-01-15 06:23:00,73.0,65.0,30.10,East,94,5.0,10.0,75,-99.99,,,-99.99,,2013-01-15 11:23:00,
2013-01-15 06:33:00,73.0,65.0,30.10,East,94,5.0,10.0,75,-99.99,,,-99.99,,2013-01-15 11:33:00,
2013-01-15 06:43:00,73.0,66.0,30.10,ESE,104,6.0,12.0,76,-99.99,,,-99.99,,2013-01-15 11:43:00,
2013-01-15 06:53:00,72.0,66.0,30.11,ESE,108,5.0,11.0,80,-99.99,,,-99.99,,2013-01-15 11:53:00,
2013-01-15 07:03:00,72.0,66.0,30.11,ESE,108,5.0,11.0,80,-99.99,,,-99.99,,2013-01-15 12:03:00,
2013-01-15 07:12:00,72.0,66.0,30.11,SE,131,6.0,13.0,80,-99.99,,,-99.99,,2013-01-15 12:12:00,
2013-01-15 07:22:00,72.0,66.0,30.11,SE,131,6.0,13.0,80,-99.99,,,-99.99,,2013-01-15 12:22:00,
2013-01-15 07:33:00,72.0,66.0,30.11,SE,131,6.0,13.0,80,-99.99,,,-99.99,,2013-01-15 12:33:00,
2013-01-15 07:43:00,73.0,65.0,30.11,SE,134,8.0,14.0,74,-99.99,,,-99.99,,2013-01-15 12:43:00,
2013-01-15 07:53:00,73.0,65.0,30.12,SE,134,8.0,14.0,74,-99.99,,,-99.99,,2013-01-15 12:53:00,
2013-01-15 08:03:00,73.0,65.0,30.12,SE,134,8.0,14.0,74,-99.99,,,-99.99,,2013-01-15 13:03:00,
2013-01-15 08:12:00,74.0,65.0,30.12,SE,136,9.0,14.0,73,-99.99,,,-99.99,,2013-01-15 13:12:00,
2013-01-15 08:23:00,74.0,65.0,30.12,SE,136,9.0,14.0,73,-99.99,,,-99.99,,2013-01-15 13:23:00,
2013-01-15 08:33:00,74.0,65.0,30.12,SE,132,7.0,12.0,74,-99.99,,,-99.99,,2013-01-15 13:33:00,
2013-01-15 08:43:00,74.0,64.0,30.13,SE,134,9.0,15.0,72,-99.99,,,-99.99,,2013-01-15 13:43:00,
2013-01-15 08:53:00,74.0,64.0,30.13,SE,136,8.0,14.0,70,-99.99,,,-99.99,,2013-01-15 13:53:00,
2013-01-15 09:03:00,74.0,64.0,30.13,SE,136,8.0,14.0,70,-99.99,,,-99.99,,2013-01-15 14:03:00,
2013-01-15 09:13:00,75.0,64.0,30.13,SE,137,9.0,14.0,68,-99.99,,,-99.99,,2013-01-15 14:13:00,
2013-01-15 09:23:00,75.0,64.0,30.13,SE,137,9.0,14.0,68,-99.99,,,-99.99,,2013-01-15 14:23:00,
2013-01-15 09:33:00,75.0,64.0,30.13,SE,137,9.0,14.0,68,-99.99,,,-99.99,,2013-01-15 14:33:00,
2013-01-15 09:43:00,75.0,64.0,30.13,SE,137,9.0,14.0,68,-99.99,,,-99.99,,2013-01-15 14:43:00,
2013-01-15 09:54:00,76.0,64.0,30.14,SE,132,9.0,13.0,67,-99.99,,,-99.99,,2013-01-15 14:54:00,
2013-01-15 10:03:00,76.0,64.0,30.14,SE,132,9.0,13.0,67,-99.99,,,-99.99,,2013-01-15 15:03:00,
2013-01-15 10:13:00,75.0,65.0,30.14,SE,130,7.0,13.0,69,-99.99,,,-99.99,,2013-01-15 15:13:00,
2013-01-15 10:23:00,75.0,65.0,30.14,SE,130,7.0,13.0,69,-99.99,,,-99.99,,2013-01-15 15:23:00,
2013-01-15 10:33:00,75.0,65.0,30.14,SE,130,7.0,13.0,69,-99.99,,,-99.99,,2013-01-15 15:33:00,
2013-01-15 10:43:00,75.0,66.0,30.14,ESE,118,7.0,12.0,72,-99.99,,,-99.99,,2013-01-15 15:43:00,
2013-01-15 10:53:00,74.0,65.0,30.14,SE,130,7.0,11.0,73,-99.99,,,-99.99,,2013-01-15 15:53:00,
2013-01-15 11:03:00,74.0,65.0,30.14,SE,130,7.0,11.0,73,-99.99,,,-99.99,,2013-01-15 16:03:00,
2013-01-15 11:12:00,74.0,65.0,30.13,SE,130,8.0,13.0,73,-99.99,,,-99.99,,2013-01-15 16:12:00,
2013-01-15 11:23:00,74.0,65.0,30.13,SE,130,8.0,13.0,73,-99.99,,,-99.99,,2013-01-15 16:23:00,
2013-01-15 11:33:00,74.0,65.0,30.13,SE,130,8.0,13.0,73,-99.99,,,-99.99,,2013-01-15 16:33:00,
2013-01-15 11:43:00,74.0,65.0,30.12,SE,139,9.0,15.0,72,-99.99,,,-99.99,,2013-01-15 16:43:00,
2013-01-15 11:53:00,75.0,65.0,30.12,SE,138,10.0,17.0,70,-99.99,,,-99.99,,2013-01-15 16:53:00,
2013-01-15 12:04:00,75.0,65.0,30.12,SE,138,10.0,17.0,70,-99.99,,,-99.99,,2013-01-15 17:04:00,
2013-01-15 12:13:00,76.0,65.0,30.11,SE,136,11.0,18.0,69,-99.99,,,-99.99,,2013-01-15 17:13:00,
2013-01-15 12:23:00,76.0,65.0,30.11,SE,136,11.0,18.0,69,-99.99,,,-99.99,,2013-01-15 17:23:00,
2013-01-15 12:33:00,76.0,65.0,30.11,SE,136,11.0,18.0,69,-99.99,,,-99.99,,2013-01-15 17:33:00,
2013-01-15 12:43:00,76.0,65.0,30.10,SE,134,12.0,19.0,67,-99.99,,,-99.99,,2013-01-15 17:43:00,
2013-01-15 12:53:00,77.0,66.0,30.09,SE,133,12.0,18.0,67,-99.99,,,-99.99,,2013-01-15 17:53:00,
2013-01-15 13:03:00,77.0,66.0,30.09,SE,133,12.0,18.0,67,-99.99,,,-99.99,,2013-01-15 18:03:00,
2013-01-15 13:13:00,77.0,66.0,30.09,SE,138,12.0,18.0,67,-99.99,,,-99.99,,2013-01-15 18:13:00,
2013-01-15 13:23:00,77.0,66.0,30.09,SE,138,12.0,18.0,67,-99.99,,,-99.99,,2013-01-15 18:23:00,
2013-01-15 13:33:00,77.0,66.0,30.09,SE,138,12.0,18.0,67,-99.99,,,-99.99,,2013-01-15 18:33:00,
2013-01-15 13:43:00,76.0,65.0,30.08,SE,137,11.0,19.0,67,-99.99,,,-99.99,,2013-01-15 18:43:00,
2013-01-15 13:54:00,76.0,65.0,30.08,SE,137,11.0,19.0,67,-99.99,,,-99.99,,2013-01-15 18:54:00,
2013-01-15 14:03:00,76.0,65.0,30.08,SE,137,11.0,19.0,67,-99.99,,,-99.99,,2013-01-15 19:03:00,
2013-01-15 14:13:00,76.0,65.0,30.08,SE,137,11.0,19.0,67,-99.99,,,-99.99,,2013-01-15 19:13:00,
2013-01-15 14:23:00,76.0,65.0,30.08,SE,137,11.0,19.0,67,-99.99,,,-99.99,,2013-01-15 19:23:00,
2013-01-15 14:33:00,75.0,64.0,30.08,SE,138,11.0,16.0,67,-99.99,,,-99.99,,2013-01-15 19:33:00,
2013-01-15 14:43:00,76.0,65.0,30.08,SE,137,11.0,15.0,67,-99.99,,,-99.99,,2013-01-15 19:43:00,
2013-01-15 14:53:00,76.0,64.0,30.08,SE,133,10.0,16.0,67,-99.99,,,-99.99,,2013-01-15 19:53:00,
2013-01-15 15:04:00,76.0,64.0,30.08,SE,133,10.0,16.0,67,-99.99,,,-99.99,,2013-01-15 20:04:00,
2013-01-15 15:12:00,76.0,64.0,30.07,SE,132,12.0,16.0,67,-99.99,,,-99.99,,2013-01-15 20:12:00,
2013-01-15 15:23:00,76.0,64.0,30.07,SE,132,12.0,16.0,67,-99.99,,,-99.99,,2013-01-15 20:23:00,
2013-01-15 15:33:00,76.0,64.0,30.07,SE,132,12.0,16.0,67,-99.99,,,-99.99,,2013-01-15 20:33:00,
2013-01-15 15:43:00,76.0,64.0,30.07,SE,135,11.0,17.0,67,-99.99,,,-99.99,,2013-01-15 20:43:00,
2013-01-15 15:53:00,75.0,64.0,30.07,SE,135,10.0,15.0,68,-99.99,,,-99.99,,2013-01-15 20:53:00,
2013-01-15 16:03:00,75.0,64.0,30.07,SE,135,10.0,15.0,68,-99.99,,,-99.99,,2013-01-15 21:03:00,
2013-01-15 16:13:00,75.0,64.0,30.07,SE,141,10.0,15.0,68,-99.99,,,-99.99,,2013-01-15 21:13:00,
2013-01-15 16:23:00,75.0,64.0,30.07,SE,141,10.0,15.0,68,-99.99,,,-99.99,,2013-01-15 21:23:00,
2013-01-15 16:33:00,75.0,64.0,30.07,SE,141,10.0,15.0,68,-99.99,,,-99.99,,2013-01-15 21:33:00,
2013-01-15 16:43:00,75.0,64.0,30.08,ESE,122,7.0,12.0,68,-99.99,,,-99.99,,2013-01-15 21:43:00,
2013-01-15 16:53:00,75.0,64.0,30.09,SE,129,6.0,10.0,68,-99.99,,,-99.99,,2013-01-15 21:53:00,
2013-01-15 17:03:00,75.0,64.0,30.09,SE,129,6.0,10.0,68,-99.99,,,-99.99,,2013-01-15 22:03:00,
2013-01-15 17:12:00,74.0,64.0,30.09,SE,133,7.0,12.0,69,-99.99,,,-99.99,,2013-01-15 22:12:00,
2013-01-15 17:23:00,74.0,64.0,30.09,SE,133,7.0,12.0,69,-99.99,,,-99.99,,2013-01-15 22:23:00,
2013-01-15 17:33:00,74.0,63.0,30.09,ESE,121,6.0,11.0,68,-99.99,,,-99.99,,2013-01-15 22:33:00,
2013-01-15 17:43:00,74.0,64.0,30.09,SE,131,7.0,9.0,68,-99.99,,,-99.99,,2013-01-15 22:43:00,
2013-01-15 17:53:00,74.0,64.0,30.09,SE,126,5.0,9.0,69,-99.99,,,-99.99,,2013-01-15 22:53:00,
2013-01-15 18:03:00,74.0,64.0,30.09,SE,126,5.0,9.0,69,-99.99,,,-99.99,,2013-01-15 23:03:00,
2013-01-15 18:13:00,74.0,63.0,30.09,SE,130,6.0,9.0,69,-99.99,,,-99.99,,2013-01-15 23:13:00,
2013-01-15 18:23:00,74.0,63.0,30.09,SE,130,6.0,9.0,69,-99.99,,,-99.99,,2013-01-15 23:23:00,
2013-01-15 18:33:00,74.0,64.0,30.10,SE,129,5.0,9.0,69,-99.99,,,-99.99,,2013-01-15 23:33:00,
2013-01-15 18:43:00,74.0,64.0,30.10,SE,126,5.0,9.0,70,-99.99,,,-99.99,,2013-01-15 23:43:00,
2013-01-15 18:53:00,73.0,63.0,30.10,SE,129,5.0,10.0,70,-99.99,,,-99.99,,2013-01-15 23:53:00,
2013-01-15 19:03:00,73.0,63.0,30.10,SE,129,5.0,10.0,70,-99.99,,,-99.99,,2013-01-16 00:03:00,
2013-01-15 19:13:00,73.0,63.0,30.10,SE,132,6.0,10.0,70,-99.99,,,-99.99,,2013-01-16 00:13:00,
2013-01-15 19:22:00,73.0,63.0,30.10,SE,132,6.0,10.0,70,-99.99,,,-99.99,,2013-01-16 00:22:00,
2013-01-15 19:33:00,73.0,63.0,30.10,SE,136,5.0,10.0,71,-99.99,,,-99.99,,2013-01-16 00:33:00,
2013-01-15 19:43:00,72.0,63.0,30.10,SE,140,5.0,7.0,72,-99.99,,,-99.99,,2013-01-16 00:43:00,
2013-01-15 19:53:00,72.0,63.0,30.10,SE,136,4.0,7.0,71,-99.99,,,-99.99,,2013-01-16 00:53:00,
2013-01-15 20:03:00,72.0,63.0,30.10,SE,136,4.0,7.0,71,-99.99,,,-99.99,,2013-01-16 01:03:00,
2013-01-15 20:12:00,72.0,62.0,30.09,SE,134,4.0,6.0,71,-99.99,,,-99.99,,2013-01-16 01:12:00,
2013-01-15 20:22:00,72.0,62.0,30.09,SE,134,4.0,6.0,71,-99.99,,,-99.99,,2013-01-16 01:22:00,
2013-01-15 20:33:00,72.0,62.0,30.09,SE,134,4.0,6.0,71,-99.99,,,-99.99,,2013-01-16 01:33:00,
2013-01-15 20:43:00,72.0,63.0,30.09,SE,140,5.0,8.0,73,-99.99,,,-99.99,,2013-01-16 01:43:00,
2013-01-15 20:53:00,72.0,63.0,30.08,SE,140,5.0,8.0,72,-99.99,,,-99.99,,2013-01-16 01:53:00,
2013-01-15 21:03:00,72.0,63.0,30.08,SE,140,5.0,8.0,72,-99.99,,,-99.99,,2013-01-16 02:03:00,
2013-01-15 21:12:00,72.0,63.0,30.08,SE,133,5.0,8.0,72,-99.99,,,-99.99,,2013-01-16 02:12:00,
2013-01-15 21:23:00,72.0,63.0,30.08,SE,133,5.0,8.0,72,-99.99,,,-99.99,,2013-01-16 02:23:00,
2013-01-15 21:33:00,72.0,63.0,30.08,SE,132,6.0,9.0,71,-99.99,,,-99.99,,2013-01-16 02:33:00,
2013-01-15 21:43:00,72.0,64.0,30.07,SE,141,6.0,12.0,73,-99.99,,,-99.99,,2013-01-16 02:43:00,
2013-01-15 21:53:00,72.0,64.0,30.07,SE,140,7.0,11.0,73,-99.99,,,-99.99,,2013-01-16 02:53:00,
2013-01-15 22:03:00,72.0,64.0,30.07,SE,140,7.0,11.0,73,-99.99,,,-99.99,,2013-01-16 03:03:00,
2013-01-15 22:12:00,72.0,63.0,30.07,SE,140,7.0,12.0,72,-99.99,,,-99.99,,2013-01-16 03:12:00,
2013-01-15 22:22:00,72.0,63.0,30.07,SE,140,7.0,12.0,72,-99.99,,,-99.99,,2013-01-16 03:22:00,
2013-01-15 22:33:00,72.0,63.0,30.07,SE,137,6.0,11.0,73,-99.99,,,-99.99,,2013-01-16 03:33:00,
2013-01-15 22:43:00,72.0,63.0,30.07,SE,137,6.0,11.0,73,-99.99,,,-99.99,,2013-01-16 03:43:00,
2013-01-15 22:53:00,72.0,63.0,30.06,SE,142,5.0,8.0,73,-99.99,,,-99.99,,2013-01-16 03:53:00,
2013-01-15 23:02:00,72.0,63.0,30.06,SE,142,5.0,8.0,73,-99.99,,,-99.99,,2013-01-16 04:02:00,
2013-01-15 23:12:00,72.0,62.0,30.06,SE,143,5.0,9.0,71,-99.99,,,-99.99,,2013-01-16 04:12:00,
2013-01-15 23:22:00,72.0,62.0,30.06,SE,143,5.0,9.0,71,-99.99,,,-99.99,,2013-01-16 04:22:00,
2013-01-15 23:33:00,72.0,62.0,30.06,SE,143,5.0,9.0,71,-99.99,,,-99.99,,2013-01-16 04:33:00,
2013-01-15 23:42:00,72.0,62.0,30.06,SE,143,5.0,9.0,71,-99.99,,,-99.99,,2013-01-16 04:42:00,
2013-01-15 23:53:00,72.0,62.0,30.06,SSE,151,4.0,7.0,71,-99.99,,,-99.99,,2013-01-16 04:53:00,